Theta_e
303 338 341 340 339 339 337 338 338 338 341 343 337 338 340 340 342 343 344 346 345 340 335 332 330 329 327 324 322 322 320 317 316 316 317 317 318 318 322 324 321 319 321
314 336 338 338 337 337 337 338 337 337 339 347 343 341 343 342 343 344 345 345 341 339 336 333 329 327 324 322 322 321 319 317 316 314 313 311 315 319 321 319 317 313 314
317 331 335 336 336 336 336 336 336 335 337 345 344 343 345 342 340 342 343 342 341 338 334 332 329 326 323 322 321 320 318 314 319 318 315 310 308 313 316 316 311 311 310
315 326 333 334 335 335 337 336 335 336 338 341 344 343 342 339 338 341 339 337 337 335 333 330 328 325 322 321 320 323 321 319 317 317 316 315 315 309 306 309 308 311 310
317 322 329 333 336 336 337 337 336 338 339 339 343 341 339 340 339 338 336 333 332 333 332 329 327 324 322 319 322 322 319 318 315 313 310 308 307 306 304 301 305 308 309
309 324 327 331 334 335 336 335 334 335 327 333 336 339 340 339 337 333 332 330 328 328 327 327 325 323 322 323 322 319 317 314 313 311 310 308 306 306 305 303 305 304 307
303 323 323 327 329 330 332 331 331 331 327 328 337 339 340 338 335 332 329 328 326 324 324 325 324 322 321 319 318 316 315 314 312 311 311 309 309 308 307 304 303 302 305
301 318 325 325 327 327 329 329 330 331 334 329 335 339 338 335 332 329 329 325 325 325 323 322 321 319 319 317 317 316 315 314 313 311 310 309 309 308 307 304 302 301 301
299 306 327 325 327 326 326 328 329 335 338 337 340 336 333 332 328 326 326 325 324 323 322 321 319 316 315 314 312 311 311 311 310 308 307 307 307 306 305 305 305 302 299
299 302 325 327 327 325 325 327 330 337 340 339 335 332 329 329 327 327 325 322 318 316 315 314 314 312 311 309 307 306 305 305 305 306 305 305 305 305 305 305 305 304 306
298 302 321 326 326 324 324 328 333 337 335 332 329 328 328 327 325 323 321 317 314 314 312 310 308 306 305 303 302 302 302 301 300 301 302 303 304 303 304 305 304 305 307
300 302 322 325 323 324 332 334 336 334 330 328 326 325 325 323 321 318 317 313 309 308 306 305 303 302 301 300 300 299 299 299 298 299 300 302 307 301 301 301 300 301 304
308 327 326 323 324 331 333 331 330 326 325 324 323 322 321 319 317 313 311 306 303 301 301 300 299 298 298 297 297 297 297 298 298 299 300 302 301 298 298 298 298 299 301
325 330 327 327 332 329 327 325 323 323 323 322 319 318 316 315 312 310 305 302 300 298 297 297 296 296 296 297 297 296 296 297 300 301 303 304 301 298 296 297 298 299 298
327 328 328 327 325 323 322 321 320 320 319 317 315 312 312 311 309 305 302 300 299 297 296 295 294 293 294 297 296 295 296 296 297 299 301 301 302 301 299 298 297 297 298
325 325 322 320 319 318 317 318 317 316 314 312 310 310 310 308 306 303 300 298 296 295 294 292 291 290 293 296 298 296 292 293 294 295 295 301 298 297 298 298 299 298 295
318 318 317 317 317 316 316 314 312 312 310 309 309 309 308 306 304 302 299 296 294 293 291 289 289 289 290 294 294 294 289 290 291 293 294 297 296 296 295 296 297 297 298
315 315 315 315 315 314 311 311 310 309 308 307 307 306 305 304 303 301 298 297 294 292 289 288 287 287 290 293 293 292 287 288 290 293 297 296 294 294 293 293 291 291 292
314 314 313 313 311 309 309 308 308 306 305 304 304 304 304 302 301 300 298 297 295 291 288 287 286 284 284 292 292 288 286 287 287 289 292 293 293 293 293 290 290 288 288
310 309 309 308 308 308 307 305 303 302 301 302 302 302 302 301 300 299 297 297 295 291 289 286 285 289 283 290 291 288 285 285 286 287 289 294 292 292 292 288 287 285 286
305 306 306 304 305 306 305 302 301 299 300 301 299 295 294 293 295 296 297 296 293 289 287 285 283 282 284 284 291 291 285 285 285 286 287 289 292 291 291 291 288 287 287
304 304 302 302 303 303 301 299 298 298 295 292 290 289 289 291 292 291 293 294 289 287 283 281 280 281 281 289 290 291 291 290 285 285 286 288 290 290 290 289 290 289 287
301 301 300 300 301 301 300 297 294 292 290 288 287 287 287 287 288 288 288 285 283 282 281 280 279 280 282 282 289 290 291 293 286 287 291 291 290 289 287 289 289 286 283
299 300 299 297 297 299 299 295 292 290 287 286 285 284 284 284 285 285 284 283 281 280 280 280 280 280 281 282 284 284 284 289 287 287 287 289 288 288 286 285 284 283 282
299 299 298 297 297 297 296 294 293 290 287 286 285 284 284 284 283 282 282 282 280 281 280 279 280 281 281 283 288 286 284 284 287 285 283 284 283 282 281 281 281 281 281
298 297 297 297 297 297 295 294 293 291 288 286 285 284 283 283 283 282 281 288 287 288 287 287 285 283 286 290 290 289 289 288 288 284 281 282 282 280 279 279 278 279 279
Wind_Speed
8 10 13 16 17 12 14 14 13 11 10 8 8 7 5 4 3 3 6 7 8 9 8 5 5 3 3 4 5 3 2 2 2 3 4 4 3 2 3 2 4 6 5
7 13 13 14 18 21 19 15 14 12 11 8 4 4 4 3 3 2 4 6 9 9 7 7 5 5 4 4 4 3 2 2 2 2 1 4 5 4 3 3 3 6 3
14 15 20 18 18 19 20 19 17 14 10 7 7 6 5 5 3 3 3 5 8 7 7 6 5 5 4 3 2 3 4 3 2 3 3 2 1 3 3 4 4 6 5
10 15 19 20 19 20 19 19 16 15 10 8 10 16 10 6 3 5 4 4 7 8 7 6 5 5 4 4 2 2 2 3 3 2 3 3 1 1 5 3 4 5 5
15 18 19 21 22 19 18 17 15 12 11 10 10 10 9 6 6 5 9 8 5 7 6 6 6 6 4 3 4 3 5 2 3 1 1 3 2 2 1 4 4 3 3
11 17 21 20 19 16 15 14 16 14 9 11 8 10 15 14 10 8 8 5 4 4 7 6 6 6 5 4 3 4 6 4 4 2 3 1 1 1 1 2 3 4 3
13 16 18 17 16 18 17 13 14 12 9 10 9 8 11 12 14 11 10 9 5 4 6 6 6 5 5 5 5 5 4 2 3 3 1 1 1 1 1 1 3 3 4
12 17 20 20 20 20 19 17 14 12 12 11 8 9 10 6 7 10 8 7 6 6 6 7 7 6 6 5 5 3 3 4 4 5 4 1 1 1 1 2 1 4 3
10 14 17 20 21 20 20 20 16 13 13 13 12 11 10 11 10 12 10 8 6 6 8 8 8 7 7 7 6 5 6 6 5 5 4 2 2 2 2 2 3 3 4
10 10 17 21 20 21 18 14 15 17 14 14 12 11 12 12 13 11 11 10 8 8 9 9 9 9 9 8 8 6 6 6 5 4 6 4 3 4 4 4 3 3 3
12 13 15 15 18 18 17 15 16 15 15 13 13 14 13 14 13 12 11 10 9 10 12 11 10 9 9 8 7 7 7 6 5 5 5 6 5 3 4 3 3 3 3
11 7 15 16 18 18 19 18 16 16 13 14 14 14 15 14 15 13 12 12 12 12 11 11 11 9 9 8 9 7 6 5 6 6 6 5 4 5 5 4 5 4 5
6 11 17 18 19 20 19 18 16 17 17 16 16 15 15 15 16 15 14 13 14 13 12 11 11 10 9 8 7 6 5 5 5 5 6 5 6 5 4 5 5 5 5
14 17 17 19 18 19 19 19 17 17 17 17 18 16 16 14 15 15 14 14 13 13 12 10 10 8 7 7 6 5 5 5 5 6 5 6 5 5 6 5 7 7 6
15 18 17 16 18 20 19 18 18 18 19 18 17 15 16 16 16 16 15 14 14 12 11 10 9 6 7 6 6 5 5 5 6 6 5 4 10 13 10 6 7 6 6
17 19 18 20 19 23 21 21 20 20 20 18 17 16 15 17 16 16 14 14 13 11 11 10 8 8 7 13 12 7 6 6 6 5 6 4 10 11 14 15 14 10 7
17 20 21 19 18 22 24 22 20 20 20 20 16 16 15 17 15 15 15 13 12 11 10 7 8 9 7 14 12 12 5 5 5 5 5 6 5 8 7 11 12 11 14
24 21 19 18 19 23 23 23 20 20 20 19 17 15 16 16 14 14 13 12 10 10 8 8 7 7 7 13 12 10 5 5 5 6 5 5 6 5 8 6 6 7 8
26 22 21 22 21 24 23 24 20 18 19 17 16 15 15 15 13 13 12 11 12 10 8 6 7 7 6 12 13 8 5 6 6 5 6 6 6 11 10 5 6 7 9
25 24 24 23 23 19 22 24 20 19 17 15 14 13 12 13 13 12 11 10 11 10 7 8 7 11 6 12 13 9 5 6 5 6 6 13 9 12 12 7 7 11 12
27 26 24 22 19 20 21 20 20 18 15 15 14 13 11 11 10 10 11 11 11 9 8 7 5 6 7 8 12 10 4 3 3 4 5 6 13 13 14 13 10 11 11
25 27 25 20 17 19 21 21 20 15 15 15 14 12 10 8 9 12 10 11 10 9 6 6 5 4 6 12 11 10 7 5 5 4 4 6 16 16 16 13 17 18 14
26 23 24 22 17 17 19 21 15 15 14 14 13 11 12 10 9 12 10 9 7 6 5 4 4 4 5 5 11 11 11 11 5 4 9 14 14 16 12 18 18 15 10
22 20 25 22 17 17 17 18 17 15 14 13 12 10 11 11 10 8 7 7 6 6 4 4 5 5 4 5 5 5 5 10 7 9 8 10 11 14 12 11 11 9 10
19 18 20 19 18 17 16 15 15 15 14 13 11 11 10 11 10 8 6 6 3 4 5 3 3 4 4 4 2 5 4 4 6 6 5 7 7 10 9 9 9 9 9
17 17 17 18 16 16 15 13 14 14 14 13 9 9 9 8 8 8 5 9 9 10 8 6 3 1 2 3 11 12 13 12 10 5 5 6 7 9 10 10 10 10 13
Wind_Direction
195 169 173 170 165 168 172 179 166 170 151 150 156 184 165 167 177 196 199 168 136 131 142 151 129 132 138 139 127 123 126 27 348 6 340 340 340 321 51 71 32 35 11
164 163 163 170 174 173 183 180 181 177 171 163 165 140 127 121 110 116 140 149 145 148 151 141 141 127 113 119 143 156 115 85 26 98 91 9 342 335 16 69 71 19 9
169 169 171 175 179 180 180 184 182 179 180 147 120 96 96 86 130 123 132 157 157 131 115 120 125 119 129 154 158 137 125 138 62 64 116 37 298 314 341 3 43 19 19
169 170 172 175 182 186 187 183 178 178 168 149 160 162 165 154 117 146 135 124 104 106 113 120 122 129 118 114 88 76 88 90 76 68 57 89 148 228 316 324 351 7 2
176 173 180 179 187 184 182 183 180 175 167 156 165 159 130 115 118 128 122 109 96 99 111 111 113 99 92 103 120 89 72 65 110 120 56 46 59 71 130 295 321 328 326
185 185 185 181 187 183 181 175 177 177 143 143 147 160 140 143 139 140 114 125 100 98 88 94 97 104 112 104 99 82 72 88 91 82 82 129 123 262 40 292 289 267 287
191 189 182 182 180 175 177 174 182 166 149 145 144 154 145 152 146 145 141 134 110 101 101 105 101 87 85 83 77 81 85 80 69 68 55 8 222 138 150 241 285 291 294
208 199 184 180 178 177 177 173 167 159 156 164 145 135 135 124 131 128 118 104 118 113 106 94 96 97 89 76 72 67 55 60 44 37 26 7 12 76 188 221 239 294 281
212 207 186 181 177 179 178 174 160 154 151 148 145 128 114 130 120 111 108 109 111 100 99 94 93 79 68 66 67 56 49 54 43 38 27 33 333 343 303 270 242 225 309
231 195 193 185 179 177 173 165 158 158 144 141 132 125 124 112 109 107 106 106 97 95 88 76 70 67 66 62 65 51 37 53 24 16 14 4 348 338 329 299 283 262 272
249 203 186 192 168 162 155 151 148 138 130 122 122 127 118 112 109 108 104 95 85 82 79 79 77 70 65 52 59 54 33 38 12 4 357 343 343 344 339 330 326 337 294
245 205 160 160 154 152 145 146 137 130 125 118 115 112 110 109 104 100 95 89 87 77 83 79 74 66 59 48 44 35 13 15 13 352 354 342 357 8 359 349 341 320 308
192 153 149 155 157 143 136 129 130 125 119 119 113 111 111 111 109 99 95 87 87 79 75 75 69 59 47 43 35 24 1 8 9 352 346 1 29 11 352 337 327 306 327
172 152 149 150 148 133 128 127 121 119 121 118 111 113 107 109 106 98 94 92 93 90 80 73 71 62 49 43 34 18 12 14 22 9 22 49 36 13 346 334 320 322 316
161 146 141 138 132 122 117 117 115 117 112 108 104 103 108 109 100 96 95 95 89 86 84 78 62 50 49 32 25 17 25 28 23 13 10 52 22 10 358 343 331 322 310
146 134 125 126 127 124 120 113 115 108 106 105 103 103 105 98 98 101 99 95 89 85 80 69 64 52 45 31 32 34 23 20 24 12 2 5 21 4 357 356 351 346 337
128 121 119 119 131 119 118 111 110 110 106 106 108 106 106 99 102 104 99 97 94 90 82 73 65 56 42 30 28 35 30 31 12 7 3 6 7 1 342 339 349 345 343
123 115 115 117 120 111 104 109 107 107 108 103 105 105 103 104 105 105 106 104 101 95 88 74 60 60 37 27 22 30 27 27 13 359 343 326 331 336 343 335 346 338 332
126 119 116 118 106 106 107 102 101 101 98 99 101 106 110 110 113 112 111 110 103 93 81 69 58 54 24 21 23 30 23 25 7 341 344 348 345 341 355 2 358 345 347
106 110 108 99 101 105 104 101 101 97 93 98 100 102 106 110 111 111 108 107 102 97 85 66 45 48 23 18 23 30 24 24 359 348 355 11 27 25 25 31 16 7 349
104 100 99 94 98 103 102 96 96 92 98 94 91 86 85 89 93 95 102 103 101 94 73 67 40 31 20 8 28 38 41 14 8 24 11 9 25 28 26 27 23 5 345
103 98 90 90 93 96 96 93 90 95 94 92 88 82 78 86 93 96 94 100 101 88 74 70 42 13 14 26 18 28 40 49 62 22 347 18 27 22 19 21 12 2 358
91 94 95 92 87 92 99 97 99 98 94 89 87 85 83 80 85 95 96 91 84 91 76 74 54 27 14 9 13 21 32 38 45 31 39 29 23 19 16 11 9 3 3
91 102 98 94 92 93 95 102 103 98 95 93 90 86 86 80 72 76 79 93 97 88 96 78 55 31 17 9 0 12 22 31 36 32 37 28 26 29 18 12 6 4 4
87 89 97 101 101 101 101 102 104 105 101 98 95 91 88 91 86 69 82 95 76 125 113 90 98 71 33 320 309 56 49 43 41 39 29 25 16 17 12 7 5 1 360
88 91 96 101 104 103 106 107 110 111 110 105 104 104 101 96 98 104 94 76 100 95 100 109 95 319 281 40 55 50 55 53 35 41 34 25 23 18 10 5 359 360 356